Regional Weather Roundup
Issued by NWS Newport/Morehead, NC

Current Version | Previous Version | Text Only | Print | Product List | Glossary Off
Versions: 1 2 3 4 5 6 7 8 9 10 11 12 13 14 15 16 17 18 19 20 21 22 23 24 25 26 27 28 29 30 31 32 33 34 35 36 37 38 39 40 41 42 43 44 45 46 47 48 49 50
000 ASUS42 KMHX 011625 RWRMHX WEATHER ROUNDUP FOR EASTERN NORTH CAROLINA NATIONAL WEATHER SERVICE NEWPORT/MOREHEAD CITY NC 1200 PM EDT WED JUL 01 2015 NOTE: "FAIR" INDICATES FEW OR NO CLOUDS BELOW 12,000 FEET WITH NO SIGNIFICANT WEATHER AND/OR OBSTRUCTIONS TO VISIBILITY NCZ015>017-031-032-045>047-102-103-011700- NORTH COAST CITY SKY/WX TMP DP RH WIND PRES REMARKS EDENTON N/A 82 69 66 W9 29.96R ELIZABETH CITY SUNNY 82 69 64 SW9 29.94R KITTY HAWK SUNNY 86 69 55 W7 29.93S MANTEO SUNNY 84 68 59 W7 29.95S $$ NCZ045>047-081-094-103-104-011700- CENTRAL COAST CITY SKY/WX TMP DP RH WIND PRES REMARKS FRISCO SUNNY 81 72 74 SW14 29.97S SWANQUARTER N/A 82 N/A N/A SW6G12 29.94S $$ NCZ095-097-098-100-101-011700- SOUTHERN COAST CITY SKY/WX TMP DP RH WIND PRES REMARKS BEAUFORT SUNNY 82 72 71 SW16 29.98R CEDAR ISLAND N/A 82 N/A N/A W7 30.00S JACKSONVILLE MOSUNNY 81 70 69 SW9 29.98S PINEY ISLAND MOSUNNY N/A N/A N/A W8 29.97R WILMINGTON PTSUNNY 81 72 74 W9 29.99S $$ NCZ011>013-027>030-043-044-078>080-089-090>093-098-011700- COASTAL PLAIN CITY SKY/WX TMP DP RH WIND PRES REMARKS AHOSKIE SUNNY 79 69 71 CALM 29.96R CLINTON CLOUDY 77 71 82 SW6 30.00R ELIZABETHTOWN CLOUDY 75 70 85 SW3 30.01R GOLDSBORO MOSUNNY 80 71 73 SW7 29.96R GREENVILLE SUNNY 82 70 65 SW6 29.98S HAVELOCK MOSUNNY 85 71 63 W6 29.98S KENANSVILLE CLOUDY 78 68 72 SW3 30.00S KINSTON SUNNY 82 68 61 SW6 29.98S NEW BERN SUNNY 82 70 66 SW5 29.98S RICHLANDS CLOUDY 81 68 65 SW9 29.99S ROCKY MOUNT SUNNY 83 69 62 SW9 29.96S WASHINGTON SUNNY 82 69 66 SW6 29.97S WHITEVILLE CLOUDY 75 70 83 SW3 30.00S $$ AMZ130-135-150-152-154-156-158-170-250-252-270-ANZ085-086-088-633-658-670-011700- MARINE OBSERVATIONS STATION/POSITION TIME TEMP WIND PRES WAVE SWELL AIR SEA DIR/SP/G HT/PER HT/PER (UTC) (F) (DEG/KT/KT) (MB) (FT/S) (FT/S) CHESAPEAKE LIGHT 1600 77 220/ 10/ 10 1013.7 64 E VA BEACH 1550 77 77 230/ 12/ 14 1013.0 6/ 8 5/ 8 DUCK 1600 79 58 250/ 11/ 15 1013.0 2 E DUCK 1511 70 N/A 2/ 8 OREGON INLET 1600 81 82 210/ 12/ 14 1013.9 13E OREGON INLT 1600 73 N/A 4/ 7 HATTERAS CG 1600 80 81 220/ 10/ 14 1014.7 DIAMOND BUOY 1550 80 82 230/ 19/ 23 1014.7 5/ 6 3/ 8 CAPE LOOKOUT 1600 81 240/ 12/ 15 1015.0 BEAUFORT LAB 1600 81 80 220/ 8/ 13 1014.5 30 SE NEW RVR IN 1508 80 81 250/ 16/ 19 1015.7 27 SE WRIGHTSVLE 1600 80 250/ 14/ 16 N/A 5 SE WRIGHTSVLE 1508 80 80 230/ 12/ 16 1015.5 225 S CAPE HAT 1550 76 80 200/ 14/ 19 1019.4 6/ 6 3/ 7 41 SE CHARLESTON 1550 79 82 250/ 17/ 19 1016.5 5/ 9 3/ 9 $$

USA.gov is the U.S. government's official web portal to all federal, state and local government web resources and services.